Regional Weather Roundup
Issued by NWS Sterling, VA

Home | Current Version | Previous Version | Graphics & Text | Print | Product List | Glossary On
Versions: 1 2 3 4 5 6 7 8 9 10 11 12 13 14 15 16 17 18 19 20 21 22 23 24 25 26 27
000
ASUS41 KLWX 221810
RWRLWX

REGIONAL WEATHER ROUNDUP
NATIONAL WEATHER SERVICE BALTIMORE MD/WASHINGTON DC
200 PM EDT MON AUG 22 2016

Note: "FAIR" indicates few or no clouds below 12,000 feet
with no significant weather and/or obstructions to visibility.
 TC=TEMPERATURE CELSIUS

 * =Non NWS site. Station does not report precipitation (e.g. rain,
    snow, etc.), thunder, or fog.

DCZ001-MDZ009-015-VAZ040>042-051-053>054-221900-
WASHINGTON METRO

CITY           SKY/WX    TMP DP  RH WIND       PRES   REMARKS
WASHINGTON NAT MOSUNNY   83  61  47 NW15      30.11R
DULLES         PTSUNNY   81  58  45 N10       30.12S
ANDREWS AFB    MOSUNNY   80  59  48 N8        30.09S
FT BELVOIR     MOSUNNY   82  60  47 W14G20    30.10S
QUANTICO       MOSUNNY   83  60  45 MISG      30.11R
COLLEGE PARK*  MOSUNNY   79  55  44 W7        30.09S
LEESBURG*      MOSUNNY   81  61  50 N12G17    30.13S
MANASSAS*      PTSUNNY   81  57  44 N10G16    30.12S
GAITHERSBURG*  MOSUNNY   79  61  53 NW9       30.15R

$$

MDZ006>007-011-014-221900-
BALTIMORE METRO

CITY           SKY/WX    TMP DP  RH WIND       PRES   REMARKS
BWI AIRPORT    MOSUNNY   81  57  43 NW10G21   30.09R
MD SCIENCE CTR   N/A     81  55  40 MISG      30.09R
MARTIN STATE   PTSUNNY   81  63  54 NW7       30.10R
ANNAPOLIS      PTSUNNY   81  62  52 N8        30.08R
FORT MEADE*    MOSUNNY   79  59  50 NW6       30.12R

$$

MDZ012-015-019>023-221900-
MARYLAND EASTERN SHORE

CITY           SKY/WX    TMP DP  RH WIND       PRES   REMARKS
OCEAN CITY     SUNNY     85  64  49 N9        30.05R
SALISBURY      SUNNY     83  62  49 N14G20    30.06R
BAY BRIDGE AP* SUNNY     79  61  53 N9        30.09R
CAMBRIDGE*     SUNNY     79  61  53 NW9       30.08R
EASTON*        MOSUNNY   82  66  57 NW14G21   30.12R

$$

MDZ017>025-221900-
SOUTHERN MARYLAND

CITY           SKY/WX    TMP DP  RH WIND       PRES   REMARKS
PATUXENT RIVER MOSUNNY   82  61  48 VRB5      30.09R
ST INIGOES     SUNNY     82  64  54 W8        30.08S
LEONARDTOWN*   MOSUNNY   81  61  50 W3        30.11S

$$

MDZ003>005-221900-
NORTH CENTRAL MARYLAND

CITY           SKY/WX    TMP DP  RH WIND       PRES   REMARKS
FREDERICK*     MOSUNNY   81  61  50 NW13G18   30.14S
HAGERSTOWN APT MOSUNNY   79  54  41 NW13      30.12F

$$

MDZ501>502-221900-
WESTERN MARYLAND

CITY           SKY/WX    TMP DP  RH WIND       PRES   REMARKS
OAKLAND*       PTSUNNY   63  52  67 NW6       30.25S
CUMBERLAND*    MOSUNNY   79  52  38 NW9G16    30.19R

$$

VAZ025>031-221900-
SHENANDOAH VALLEY

CITY           SKY/WX    TMP DP  RH WIND       PRES   REMARKS
WINCHESTER*    CLOUDY    79  57  47 NW6       30.14R
FRONT ROYAL*   MOCLDY    79  59  50 CALM      30.13S
LURAY*         MOCLDY    79  54  41 N6        30.15S
NEW MARKET*    FAIR     N/A N/A N/A NE8       30.14S
STAUNTON*      MOSUNNY   78  53  42 N3        30.18F
WAYNESBORO*    FAIR      76  52  42 CALM      30.17F

$$

WVZ021-048>050-054>055-221900-
EASTERN WEST VIRGINIA PANHANDLE

CITY           SKY/WX    TMP DP  RH WIND       PRES   REMARKS
MARTINSBURG    MOSUNNY   80  57  45 N12       30.12S
PETERSBURG*    MOSUNNY   81  54  39 W10       30.15F

$$

VAZ036>039-050-221900-
CENTRAL FOOTHILLS

CITY           SKY/WX    TMP DP  RH WIND       PRES   REMARKS
CHARLOTTESVILL MOSUNNY   82  55  39 NW9       30.14S
CULPEPER*      SUNNY     82  60  48 NW5       30.13S
ORANGE*          N/A     81  55  41 CALM      30.15
GORDONSVILLE*  NOT AVBL
WARRENTON*     FAIR      83  54  37 NW6       30.12S

$$

VAZ055>057-221900-
NORTH AND CENTRAL PIEDMONT

CITY           SKY/WX    TMP DP  RH WIND       PRES   REMARKS
FREDERICKSBRG* MOSUNNY   82  60  47 NW6       30.10S
STAFFORD*      MOSUNNY   82  59  45 NW10      30.15S

$$

NCZ024-NYZ072-PAZ021-071-VAZ022-071-221900-
OTHER REGIONAL OBSERVATIONS

CITY           SKY/WX    TMP DP  RH WIND       PRES   REMARKS
NEW YORK CITY  SUNNY     77  53  43 VRB7G18   30.04S
PHILADELPHIA   MOSUNNY   81  55  40 NW15G22   30.05R
PITTSBURGH     PTSUNNY   73  54  51 NW8       30.19F
ROANOKE        MOSUNNY   80  56  43 NW5       30.19S
RICHMOND       MOSUNNY   85  55  35 N14G20    30.10F
RALEIGH        MOSUNNY   86  57  37 N8        30.13F

$$

ANZ530>537-221900-
MARINE OBSERVATIONS

STATION/POSITION TIME  TEMP    WIND        PRES
                       AIR SEA DIR/SP/G
                 (UTC) (F)     (DEG/KT/KT) (MB)
THOMAS PT LIGHT  1800   79 83  350/  8/  9 1020.1R
BALT KEY BRIDGE  1748   79     310/ 12/ 13 1018.6R
COVE POINT       1748   78      20/  8/ 11 1019.4R
LEWISETTA        1748   80 84  360/  9/ 12 1018.6R
SOLOMONS ISLAND  1742   80 85  330/  7/ 10   N/A
PINEY POINT      1748          320/ 13/ 16   N/A

$$





USA.gov is the U.S. government's official web portal to all federal, state and local government web resources and services.